Location: Codford Saint Peter
(51.1597°N, 2.0531°W)
Time: 17:08:39
(UTC+00:00)

Cosmos 1674 - Pass Details

Date: 18 September 2020
Orbit: 494 x 518 km, 82.5° (Epoch: 31 October)

Event Time Altitude Azimuth Distance (km) Brightness Sun altitude
Rises 19:01:49 0° 1° (N) 2,656 6.5 -8.1°
Reaches altitude 10° 19:04:28 10° 20° (NNE) 1,764 5.3 -8.6°
Maximum altitude 19:07:16 19° 66° (ENE) 1,291 4.3 -9.0°
Enters shadow 19:09:25 13° 105° (ESE) 1,582 4.5 -9.3°
